Weather History for Ogallala, NE

Change the Weather History Date:

Thursday, September 26, 2013

  Actual Average Record
Temperature  
Mean Temperature 67 °F -  
Max Temperature 82 °F 75 °F 93 °F (2008)
Min Temperature 52 °F 41 °F 27 °F (1970)
Cooling Degree Days 2    
Growing Degree Days 17 (Base 50)    
Moisture  
Dew Point 50 °F    
Average Humidity 58    
Maximum Humidity 85    
Minimum Humidity 29    
Precipitation  
Precipitation 0.00 in - - ()
Sea Level Pressure  
Sea Level Pressure 29.66 in    
Wind  
Wind Speed 8 mph (NNE)    
Max Wind Speed 17 mph    
Max Gust Speed 22 mph    
Visibility 10 miles    
Events      
Averages and records for this station are not official NWS values.
T = Trace of Precipitation, MM = Missing Value Source: NWS Daily Summary

Daily Weather History Graph

Daily Weather History Graph

Search for Another Location

Airport:

Trip Planner

Search our weather history database for the weather conditions in past years. The results will help you decide how hot, cold, wet, or windy it might be!

Date:

Astronomy

Sep. 26, 2013 Rise Set
Actual Time 6:38 AM MDT 6:36 PM MDT
Civil Twilight 6:11 AM MDT 7:04 PM MDT
Nautical Twilight 5:39 AM MDT 7:36 PM MDT
Astronomical Twilight 5:06 AM MDT 8:08 PM MDT
Moon 11:34 PM MDT (9/26) 1:35 PM MDT (9/26)
Length of Visible Light 12h 52m
Length of Day
11h 58m
Waning Gibbous, 54% of the Moon is Illuminated
Sep 26
Waning Gibbous
Sep 26
Last Quarter
Oct 4
New
Oct 11
First Quarter
Oct 18
Full

Hourly Weather History & Observations

Time (MDT) Temp. Dew Point Humidity Pressure Visibility Wind Dir Wind Speed Gust Speed Precip Events Conditions
12:15 AM 66.2 °F 46.4 °F 49% 29.50 in 10.0 mi SSE 9.2 mph 18.4 mph N/A   Clear
12:35 AM 65.5 °F 46.4 °F 50% 29.50 in 10.0 mi SSE 10.4 mph 18.4 mph N/A   Clear
12:55 AM 66.2 °F 45.7 °F 48% 29.53 in 10.0 mi Calm Calm - N/A   Clear
1:15 AM 64.4 °F 46.0 °F 51% 29.53 in 10.0 mi South 4.6 mph - N/A   Clear
1:35 AM 62.8 °F 46.0 °F 54% 29.54 in 10.0 mi Calm Calm - N/A   Clear
1:55 AM 61.3 °F 46.4 °F 58% 29.54 in 10.0 mi Calm Calm - N/A   Clear
2:15 AM 59.5 °F 46.6 °F 62% 29.55 in 10.0 mi West 4.6 mph - N/A   Clear
2:35 AM 57.2 °F 46.6 °F 68% 29.56 in 10.0 mi West 3.5 mph - N/A   Clear
2:55 AM 54.5 °F 46.4 °F 74% 29.56 in 10.0 mi West 4.6 mph - N/A   Clear
3:15 AM 52.7 °F 46.4 °F 79% 29.57 in 10.0 mi Calm Calm - N/A   Clear
3:35 AM 52.3 °F 45.9 °F 79% 29.58 in 10.0 mi West 4.6 mph - N/A   Clear
3:55 AM 52.0 °F 45.9 °F 80% 29.59 in 10.0 mi West 5.8 mph - N/A   Clear
4:15 AM 52.9 °F 47.1 °F 81% 29.60 in 10.0 mi WNW 4.6 mph - N/A   Clear
4:35 AM 55.8 °F 49.1 °F 78% 29.61 in 10.0 mi WNW 5.8 mph - N/A   Clear
4:55 AM 56.3 °F 49.5 °F 78% 29.61 in 10.0 mi NNW 17.3 mph 21.9 mph N/A   Clear
5:15 AM 56.3 °F 49.5 °F 78% 29.62 in 10.0 mi NNW 8.1 mph 20.7 mph N/A   Clear
5:35 AM 55.6 °F 49.3 °F 79% 29.64 in 10.0 mi West 4.6 mph - N/A   Clear
5:55 AM 54.7 °F 49.1 °F 81% 29.65 in 10.0 mi Calm Calm - N/A   Clear
6:15 AM 54.3 °F 48.4 °F 80% 29.66 in 10.0 mi NW 5.8 mph - N/A   Clear
6:35 AM 53.6 °F 48.2 °F 82% 29.68 in 10.0 mi NW 4.6 mph - N/A   Clear
6:55 AM 52.3 °F 47.5 °F 84% 29.68 in 10.0 mi WNW 5.8 mph - N/A   Clear
7:15 AM 52.7 °F 48.2 °F 85% 29.69 in 10.0 mi WNW 4.6 mph - N/A   Clear
7:35 AM 54.0 °F 48.9 °F 83% 29.70 in 10.0 mi NNW 8.1 mph - N/A   Clear
7:55 AM 55.8 °F 49.3 °F 79% 29.70 in 10.0 mi NW 11.5 mph - N/A   Clear
8:15 AM 57.2 °F 49.3 °F 75% 29.70 in 10.0 mi NNW 12.7 mph - N/A   Clear
8:35 AM 58.3 °F 49.6 °F 73% 29.72 in 10.0 mi NNW 10.4 mph - N/A   Clear
8:55 AM 60.1 °F 50.2 °F 70% 29.72 in 10.0 mi NNW 15.0 mph - N/A   Clear
9:15 AM 61.5 °F 50.2 °F 66% 29.72 in 10.0 mi NNW 12.7 mph 18.4 mph N/A   Clear
9:35 AM 63.0 °F 50.4 °F 63% 29.72 in 10.0 mi NNW 11.5 mph 18.4 mph N/A   Clear
9:55 AM 64.8 °F 50.5 °F 60% 29.72 in 10.0 mi North 15.0 mph - N/A   Clear
10:15 AM 67.1 °F 51.1 °F 56% 29.72 in 10.0 mi North 15.0 mph - N/A   Clear
10:35 AM 68.5 °F 51.3 °F 54% 29.72 in 10.0 mi North 15.0 mph - N/A   Clear
10:55 AM 70.2 °F 51.1 °F 51% 29.73 in 10.0 mi North 11.5 mph - N/A   Clear
11:15 AM 72.0 °F 51.4 °F 48% 29.72 in 10.0 mi NE 10.4 mph 20.7 mph N/A   Clear
11:35 AM 73.6 °F 51.4 °F 46% 29.72 in 10.0 mi NNE 10.4 mph 19.6 mph N/A   Clear
11:55 AM 74.7 °F 51.4 °F 44% 29.71 in 10.0 mi NNE 13.8 mph - N/A   Clear
12:15 PM 75.9 °F 51.1 °F 42% 29.71 in 10.0 mi NE 11.5 mph 19.6 mph N/A   Clear
12:35 PM 76.1 °F 51.3 °F 42% 29.72 in 10.0 mi NE 10.4 mph - N/A   Clear
12:55 PM 77.9 °F 50.9 °F 39% 29.70 in 10.0 mi ENE 9.2 mph - N/A   Clear
1:15 PM 79.2 °F 50.4 °F 36% 29.70 in 10.0 mi NE 12.7 mph 16.1 mph N/A   Clear
1:35 PM 80.4 °F 50.0 °F 34% 29.70 in 10.0 mi ENE 11.5 mph - N/A   Clear
1:55 PM 80.4 °F 49.3 °F 34% 29.68 in 10.0 mi ENE 15.0 mph 20.7 mph N/A   Clear
2:15 PM 81.3 °F 49.3 °F 33% 29.68 in 10.0 mi ENE 11.5 mph 17.3 mph N/A   Clear
2:35 PM 81.3 °F 49.5 °F 33% 29.68 in 10.0 mi East 13.8 mph - N/A   Clear
2:55 PM 81.7 °F 48.2 °F 31% 29.68 in 10.0 mi ENE 10.4 mph 19.6 mph N/A   Clear
3:15 PM 82.2 °F 47.8 °F 30% 29.67 in 10.0 mi East 10.4 mph - N/A   Clear
3:35 PM 81.9 °F 46.9 °F 29% 29.67 in 10.0 mi East 13.8 mph 18.4 mph N/A   Clear
3:55 PM 82.0 °F 46.9 °F 29% 29.68 in 10.0 mi East 9.2 mph - N/A   Clear
4:15 PM 81.7 °F 47.8 °F 31% 29.67 in 10.0 mi East 11.5 mph - N/A   Clear
4:35 PM 81.7 °F 49.3 °F 32% 29.67 in 10.0 mi East 8.1 mph - N/A   Clear
4:55 PM 81.3 °F 49.8 °F 33% 29.67 in 10.0 mi ENE 12.7 mph - N/A   Clear
5:15 PM 80.8 °F 50.9 °F 35% 29.66 in 10.0 mi ENE 11.5 mph - N/A   Clear
5:35 PM 80.4 °F 51.8 °F 37% 29.66 in 10.0 mi ENE 12.7 mph - N/A   Clear
5:55 PM 79.3 °F 52.0 °F 38% 29.66 in 10.0 mi East 8.1 mph - N/A   Clear
6:15 PM 77.4 °F 52.9 °F 42% 29.66 in 10.0 mi East 4.6 mph - N/A   Clear
6:35 PM 75.2 °F 52.9 °F 46% 29.67 in 10.0 mi East 4.6 mph - N/A   Clear
6:55 PM 72.9 °F 51.4 °F 47% 29.67 in 10.0 mi SE 3.5 mph - N/A   Clear
7:15 PM 71.4 °F 50.9 °F 48% 29.67 in 10.0 mi Calm Calm - N/A   Clear
7:35 PM 67.8 °F 51.6 °F 56% 29.67 in 10.0 mi ESE 3.5 mph - N/A   Clear
7:55 PM 64.4 °F 52.0 °F 64% 29.68 in 10.0 mi ENE 4.6 mph - N/A   Clear
8:15 PM 62.2 °F 51.8 °F 69% 29.67 in 10.0 mi NE 6.9 mph - N/A   Clear
8:35 PM 62.2 °F 51.3 °F 67% 29.68 in 10.0 mi NNE 5.8 mph - N/A   Clear
8:55 PM 64.9 °F 54.0 °F 68% 29.68 in 10.0 mi North 12.7 mph - N/A   Clear
9:15 PM 64.4 °F 54.0 °F 69% 29.69 in 10.0 mi NE 10.4 mph - N/A   Clear
9:35 PM 64.6 °F 54.1 °F 69% 29.68 in 10.0 mi NE 10.4 mph - N/A   Clear
9:55 PM 64.4 °F 53.8 °F 68% 29.69 in 10.0 mi NE 8.1 mph - N/A   Clear
10:15 PM 63.5 °F 53.4 °F 70% 29.69 in 10.0 mi ENE 6.9 mph - N/A   Clear
10:35 PM 63.0 °F 53.2 °F 71% 29.68 in 10.0 mi ENE 6.9 mph - N/A   Clear
10:55 PM 62.6 °F 53.1 °F 71% 29.69 in 10.0 mi ENE 6.9 mph - N/A   Clear
11:15 PM 61.7 °F 52.9 °F 73% 29.68 in 10.0 mi ENE 9.2 mph - N/A   Clear
11:35 PM 61.7 °F 52.7 °F 72% 29.68 in 10.0 mi ENE 9.2 mph - N/A   Clear
11:55 PM 61.2 °F 52.2 °F 72% 29.68 in 10.0 mi ENE 9.2 mph - N/A   Clear